Temperature
18 18 17 17 17 17 18 17 17 17 17 17 18 18 18 18 18 17 17 18 17 17 17 17 17 17 17 16 16 16 16 16 16 16 16 16 16 16 16 16 16 16 15
18 18 18 17 17 18 18 18 17 17 18 18 18 18 17 17 17 17 17 17 17 17 17 17 17 17 16 16 16 16 16 16 16 16 16 16 16 16 16 16 16 16 15
18 18 18 17 18 18 18 18 18 18 18 18 18 18 18 17 17 17 17 17 17 17 17 17 17 17 16 16 16 16 16 16 16 16 16 16 16 16 16 16 16 16 15
18 18 18 18 18 17 18 18 18 18 18 18 18 18 18 17 17 17 17 17 17 17 17 17 17 17 16 16 16 16 16 16 16 16 16 16 16 16 16 16 15 15 15
18 18 18 18 18 18 18 18 18 18 18 18 18 18 17 17 17 17 17 17 17 17 17 17 17 17 16 16 16 16 16 16 16 16 16 16 16 16 16 15 15 15 15
18 18 18 18 17 17 18 17 17 18 18 18 18 18 17 17 17 17 17 17 17 17 17 16 16 16 16 16 16 16 16 16 16 16 16 15 15 15 15 15 15 15 15
18 18 18 18 17 17 17 17 17 17 17 17 17 18 18 17 17 17 17 17 17 17 17 16 16 16 16 16 16 16 16 16 15 15 15 15 15 15 15 15 15 15 15
18 18 18 17 18 18 17 17 17 17 17 17 17 18 18 18 17 17 17 17 16 16 16 16 16 16 16 16 16 16 15 15 15 15 15 15 15 15 15 15 15 15 15
18 18 17 17 17 17 17 17 17 17 17 17 17 18 18 18 17 17 16 16 16 16 16 16 16 16 15 15 15 15 15 15 15 15 15 15 15 15 15 14 14 14 14
18 18 18 17 17 17 17 17 17 17 17 17 17 17 17 17 17 17 16 16 16 16 16 15 15 15 15 15 15 15 15 15 15 15 15 15 15 15 14 14 14 14 14
18 18 17 17 17 17 17 17 17 17 17 17 17 17 17 17 17 17 16 16 15 15 15 15 15 15 15 15 15 15 15 15 15 15 14 14 14 14 14 14 14 14 14
17 17 17 17 17 17 17 17 17 17 17 17 17 17 17 17 16 16 16 16 15 15 15 15 14 14 14 14 14 14 14 14 14 14 14 14 14 14 14 14 14 14 13
17 17 17 17 17 17 17 17 17 17 17 17 17 16 16 16 16 16 16 15 15 14 14 14 14 14 14 14 14 14 14 14 14 14 14 14 14 14 14 13 13 13 13
17 17 17 17 17 17 17 17 17 17 17 17 16 16 16 16 16 16 16 15 15 14 14 13 13 13 13 13 13 13 13 13 13 13 13 13 13 13 13 13 13 13 13
17 17 17 17 17 17 17 17 17 17 17 16 16 16 16 16 16 16 16 15 15 15 14 13 13 13 13 13 13 13 13 13 13 13 13 13 13 13 13 13 12 12 12
18 17 17 17 17 17 17 17 16 17 17 16 16 16 16 15 15 15 15 15 15 15 14 13 13 12 12 12 12 12 12 12 12 12 12 12 12 12 12 12 12 12 12
17 17 17 17 16 16 16 17 16 16 16 16 16 16 16 15 15 15 15 15 15 15 14 13 12 12 12 12 12 12 12 12 12 12 12 12 12 12 12 11 11 11 11
17 17 17 17 16 16 16 16 16 16 16 16 15 15 15 15 15 15 15 15 14 14 14 13 12 12 12 12 12 11 11 11 11 11 11 11 11 11 11 11 11 11 10
17 17 17 16 16 16 16 16 16 16 15 15 15 15 15 15 15 14 14 14 14 14 14 13 12 12 12 11 11 11 11 11 11 11 11 11 11 11 10 10 10 10 10
17 17 16 16 16 16 16 15 15 15 15 15 15 15 15 14 14 14 14 14 14 13 13 13 12 12 11 11 11 11 11 11 10 10 10 10 10 10 10 10 10 10 10
16 16 16 16 16 15 15 15 15 15 15 15 14 14 14 14 14 14 14 13 13 13 13 13 12 12 11 11 11 11 11 11 10 10 10 10 10 10 10 9 9 9 9
16 16 16 15 15 15 15 15 15 15 14 14 14 14 14 14 14 14 14 13 13 13 13 13 12 12 11 11 11 11 11 11 10 10 10 10 9 9 9 9 9 9 9
16 16 15 15 15 15 15 15 15 14 14 14 14 13 13 13 13 13 13 13 13 13 12 12 12 12 11 11 11 11 10 10 10 10 10 10 9 9 9 9 9 9 9
16 16 15 15 15 15 15 15 14 14 13 13 13 13 13 13 13 13 12 12 12 12 12 12 12 11 11 11 11 10 10 10 10 9 9 9 9 9 9 9 9 9 8
16 15 15 15 15 15 15 14 14 14 13 13 13 13 13 12 13 12 12 12 12 12 12 11 11 11 11 11 11 10 10 10 10 10 9 9 9 9 9 9 9 8 8
16 15 15 15 14 14 14 14 14 13 13 13 13 13 13 12 12 12 12 11 11 11 11 11 11 11 11 10 10 10 10 10 10 10 9 9 9 9 9 9 9 8 8
Wind_Speed
2 3 2 1 1 2 3 2 2 2 2 3 3 3 2 2 2 3 7 11 10 10 9 9 9 9 9 8 9 8 8 8 8 8 8 8 8 9 8 8 8 8 8
2 2 3 2 1 1 1 1 1 2 2 2 2 2 2 3 3 3 4 9 11 11 10 10 10 10 10 10 10 10 9 9 9 9 9 9 9 10 10 9 9 9 9
2 2 2 2 1 2 2 2 2 2 2 2 2 3 3 3 3 3 3 4 8 12 12 11 10 10 11 11 11 10 10 11 10 10 10 10 10 10 10 10 10 10 10
2 2 2 1 1 2 2 2 3 2 2 2 2 2 2 3 3 4 4 5 4 6 10 11 10 10 10 10 10 10 10 11 11 10 11 11 11 11 11 10 10 9 9
3 3 2 1 3 2 2 3 2 2 2 2 2 2 2 2 2 3 3 3 3 4 5 9 10 9 9 8 8 7 8 8 9 9 9 10 10 10 9 9 9 9 9
4 4 3 2 3 2 2 2 2 2 2 2 2 1 2 2 2 2 2 2 2 2 3 3 5 6 7 7 7 7 7 7 8 9 8 8 8 9 9 9 9 8 9
3 3 3 2 3 3 3 3 3 3 2 1 2 2 2 3 2 1 1 1 1 1 0 1 1 1 3 6 5 6 6 6 6 7 7 8 8 8 8 9 9 9 9
3 3 3 3 2 2 3 3 3 3 2 3 2 3 2 3 2 1 2 2 2 2 2 2 2 1 0 1 3 4 4 3 3 4 4 4 5 7 7 7 8 8 9
3 2 2 3 3 3 2 3 3 4 4 3 3 3 3 2 1 2 2 2 2 2 2 3 3 3 3 3 3 4 3 2 2 2 2 2 3 3 4 6 6 6 6
2 2 2 2 3 3 2 4 3 4 4 4 3 4 4 2 2 1 2 3 3 2 2 2 3 4 4 5 6 6 6 5 4 4 4 3 2 1 0 1 2 3 3
1 1 2 2 2 3 2 3 3 4 4 4 3 3 3 3 3 3 2 2 2 2 3 3 3 4 5 5 6 7 7 6 7 6 6 6 6 6 6 5 4 3 3
1 1 1 1 2 2 2 2 2 3 3 3 3 3 3 3 3 3 3 2 2 2 4 4 4 5 6 7 9 10 9 9 9 9 9 8 8 8 9 8 7 7 6
0 0 1 1 1 1 1 1 1 2 2 2 3 3 3 3 3 3 3 3 2 1 2 3 4 5 6 7 8 10 11 11 11 10 10 10 10 9 9 10 9 8 8
1 1 1 1 1 1 1 1 1 1 1 2 2 2 2 2 3 3 3 3 3 2 2 2 3 4 6 7 8 10 11 12 11 11 11 11 11 11 10 10 10 10 9
1 1 1 1 1 1 2 1 1 1 1 1 1 1 2 1 2 2 3 4 3 3 2 2 2 3 6 8 7 10 11 13 12 12 12 11 11 11 11 11 11 11 11
1 1 1 1 1 1 1 1 1 1 1 1 1 1 1 0 0 1 2 3 3 3 2 2 2 4 6 8 9 10 11 14 14 13 12 12 12 12 11 12 12 12 12
1 1 1 1 2 2 2 2 2 2 2 2 1 1 1 1 0 1 2 2 2 3 5 3 4 5 5 7 8 9 10 10 12 13 12 11 11 12 12 12 12 11 11
2 2 1 1 2 2 2 2 2 2 2 2 2 2 2 1 1 1 2 3 3 4 6 7 5 5 5 6 7 6 8 9 11 13 12 12 11 11 11 11 11 11 11
2 2 2 2 2 2 2 2 2 3 3 3 3 3 3 3 3 3 2 3 4 5 5 7 6 5 5 6 7 6 7 6 9 11 12 12 12 11 11 11 10 10 10
3 3 3 2 2 2 2 3 3 4 4 4 4 4 4 3 3 3 3 4 5 6 6 7 7 6 5 6 5 5 5 5 5 7 8 9 10 10 10 9 9 9 9
4 4 4 3 3 2 3 3 3 4 4 4 4 4 5 6 6 4 3 4 5 5 6 7 7 6 6 5 5 4 5 5 5 4 4 5 6 6 7 7 7 6 6
4 4 4 4 3 3 6 4 2 3 3 4 4 5 5 5 7 7 7 7 5 5 5 6 6 6 6 6 5 4 4 4 3 3 3 3 3 3 5 6 7 6 4
5 5 4 4 4 5 5 3 3 2 3 4 4 3 4 5 4 6 7 7 7 6 3 3 5 5 6 6 5 5 4 3 2 3 3 3 3 3 4 6 7 5 4
6 6 5 5 4 5 5 4 1 3 4 4 4 4 4 5 5 4 5 6 5 4 3 3 4 3 4 4 4 4 5 5 4 4 3 2 3 3 3 5 8 6 5
6 6 5 5 5 5 5 3 2 4 4 4 4 4 3 4 4 2 4 5 5 5 7 8 7 6 6 4 3 4 4 4 4 4 3 2 2 3 3 4 8 10 8
7 6 6 5 5 5 6 3 4 3 4 4 4 4 4 4 4 1 3 4 5 5 5 6 6 6 7 6 5 3 3 3 3 3 4 3 3 3 3 3 4 6 7
Wind_Direction
133 120 105 122 136 125 150 170 148 136 163 168 174 171 173 154 144 157 145 164 182 191 193 196 199 203 202 203 205 205 205 206 207 208 211 214 217 217 216 215 216 217 220
141 151 159 162 143 148 132 191 168 180 204 194 193 180 208 193 173 202 184 170 187 196 201 206 209 212 211 213 214 215 217 216 216 217 218 219 224 224 225 225 226 226 224
172 207 186 187 178 173 181 212 209 211 210 202 203 206 208 215 201 209 220 203 192 196 204 210 216 218 218 218 222 223 225 223 222 224 225 225 227 228 229 230 228 228 229
210 233 229 212 217 228 217 207 224 214 224 235 221 223 206 195 205 212 222 222 223 204 197 202 212 218 223 225 229 227 229 229 228 229 230 229 230 231 232 230 228 229 228
222 235 238 245 244 239 244 252 202 236 230 252 238 210 217 212 205 212 221 229 226 226 212 183 198 212 219 220 220 219 223 222 223 226 227 228 229 227 225 227 227 229 228
226 246 225 222 248 242 239 237 243 243 252 255 267 219 210 211 215 212 223 215 216 228 241 202 188 198 203 209 214 217 220 224 226 225 224 222 220 222 224 226 226 226 230
232 242 262 215 245 247 252 244 240 225 232 234 242 222 195 195 186 202 201 201 186 197 185 145 200 208 178 189 210 220 223 228 235 230 227 224 223 225 227 229 229 229 229
238 226 240 250 247 256 246 247 250 254 240 223 248 250 227 195 178 174 173 169 147 121 115 122 113 106 264 140 133 170 192 209 217 215 212 216 219 226 230 232 233 234 236
244 255 250 265 273 264 258 258 255 251 254 238 235 250 258 241 156 147 125 122 121 119 106 97 94 90 92 90 88 110 127 140 169 176 177 193 202 219 233 240 237 236 233
249 249 254 261 272 275 269 265 254 261 256 258 238 241 259 274 239 196 154 130 117 101 90 85 87 88 85 87 85 78 89 97 100 109 112 114 120 118 69 309 242 213 204
251 274 273 276 269 274 283 286 281 266 256 260 259 252 244 234 233 234 213 162 115 79 82 82 79 83 87 87 83 81 86 93 93 98 98 93 88 86 83 74 79 113 120
202 277 282 302 288 294 286 279 277 263 272 266 261 257 251 242 225 223 218 192 146 95 78 74 73 75 82 85 85 85 85 90 92 93 94 92 88 85 81 78 80 81 81
179 66 352 338 326 314 301 300 292 300 279 264 258 259 257 252 249 228 210 196 172 152 107 75 64 72 82 89 91 95 89 90 90 90 91 92 90 85 81 76 75 75 74
49 36 9 6 356 338 327 313 297 322 312 278 273 275 263 249 236 221 211 187 178 184 156 116 77 74 85 92 94 99 91 88 89 89 91 92 91 84 79 77 76 73 70
154 99 66 46 24 17 3 342 22 357 346 316 290 263 262 246 233 216 207 214 208 200 178 147 126 90 97 99 97 97 93 89 90 90 92 95 93 86 80 78 76 73 69
117 128 94 66 51 45 32 7 38 32 29 31 360 355 311 295 228 214 213 218 219 192 164 129 117 112 105 106 104 103 101 96 87 88 88 92 91 86 82 83 79 76 72
150 135 93 72 58 44 39 41 38 39 53 56 47 52 30 25 122 189 173 169 152 144 139 131 118 118 119 115 113 112 109 104 94 90 88 89 90 89 87 84 81 76 72
144 127 110 92 82 68 56 56 50 48 53 56 52 56 50 64 73 98 141 141 133 139 143 141 139 135 126 127 124 121 111 105 103 99 96 91 91 90 88 85 80 76 72
145 134 121 108 91 78 69 63 65 69 65 58 53 57 57 65 73 83 104 120 130 136 141 143 143 140 140 138 135 122 112 108 110 115 110 103 99 96 92 87 83 78 75
153 144 135 120 106 87 74 76 77 76 74 68 62 60 59 64 74 94 107 119 128 134 136 139 141 145 141 142 142 137 130 126 116 113 109 112 114 109 100 93 88 84 82
155 143 136 124 114 109 81 74 87 88 85 84 76 70 68 66 58 58 87 115 132 139 143 142 145 148 148 155 154 150 142 133 118 115 129 124 126 118 116 111 103 95 89
148 143 143 133 122 91 70 44 44 95 94 93 88 83 89 87 87 78 69 71 79 131 143 149 152 154 159 160 156 159 152 150 142 136 140 124 125 123 113 105 107 108 101
149 143 140 129 113 96 92 73 38 96 105 95 91 91 91 90 99 101 104 111 87 71 89 157 153 159 162 166 165 159 154 147 133 143 163 152 152 148 132 120 129 134 133
151 148 147 145 138 124 119 116 109 123 106 103 102 99 100 101 89 96 115 109 105 98 101 132 134 142 142 155 171 168 165 162 156 147 176 181 165 171 161 150 155 165 171
160 161 157 158 149 138 135 146 216 138 122 115 107 97 105 112 78 42 123 120 115 113 91 83 87 103 106 120 158 177 179 187 172 160 182 222 182 187 194 185 169 178 188
167 168 158 158 156 151 146 171 237 168 142 138 126 115 82 87 95 2 137 132 131 128 127 125 124 140 146 155 182 208 207 211 193 176 169 210 214 211 206 186 179 180 193
Height
1562 1563 1562 1563 1564 1565 1565 1565 1566 1566 1566 1567 1567 1567 1568 1568 1569 1570 1569 1569 1569 1569 1570 1571 1571 1572 1573 1574 1574 1575 1575 1576 1577 1577 1578 1578 1579 1579 1580 1580 1581 1581 1582
1562 1563 1563 1563 1564 1565 1565 1565 1566 1566 1566 1567 1567 1567 1567 1568 1568 1568 1569 1568 1568 1569 1569 1570 1570 1571 1572 1572 1573 1574 1574 1575 1575 1576 1576 1577 1577 1578 1578 1579 1579 1580 1580
1562 1563 1563 1564 1564 1564 1564 1565 1565 1565 1565 1566 1566 1566 1567 1567 1567 1567 1568 1568 1568 1568 1568 1568 1569 1570 1570 1571 1572 1572 1573 1573 1574 1574 1575 1575 1575 1576 1576 1577 1577 1578 1578
1561 1562 1563 1563 1563 1564 1564 1564 1564 1565 1565 1565 1565 1565 1565 1565 1565 1565 1566 1566 1567 1567 1567 1567 1567 1568 1568 1569 1569 1570 1570 1571 1571 1572 1572 1572 1573 1573 1574 1574 1575 1575 1576
1561 1561 1562 1562 1562 1563 1563 1563 1563 1563 1563 1563 1564 1563 1564 1564 1564 1564 1564 1565 1565 1565 1566 1565 1565 1566 1566 1567 1567 1568 1568 1568 1569 1569 1569 1570 1570 1571 1571 1572 1572 1572 1573
1560 1560 1560 1560 1561 1561 1561 1561 1561 1561 1561 1561 1562 1562 1562 1562 1562 1562 1562 1563 1563 1563 1563 1564 1563 1564 1564 1564 1565 1565 1566 1566 1566 1567 1567 1567 1567 1568 1568 1569 1569 1569 1570
1559 1558 1559 1559 1559 1559 1559 1560 1560 1559 1559 1559 1560 1560 1560 1560 1560 1560 1560 1560 1561 1561 1561 1561 1562 1562 1562 1562 1562 1563 1563 1563 1564 1564 1564 1564 1565 1565 1565 1566 1566 1566 1566
1557 1558 1557 1558 1558 1558 1557 1557 1557 1558 1558 1557 1558 1558 1558 1559 1558 1558 1558 1558 1558 1558 1558 1559 1559 1559 1560 1560 1560 1560 1561 1561 1561 1561 1562 1562 1562 1562 1562 1563 1563 1563 1563
1556 1556 1556 1556 1556 1556 1556 1555 1555 1555 1556 1555 1555 1556 1556 1555 1556 1556 1555 1555 1555 1556 1556 1557 1556 1557 1557 1557 1558 1558 1558 1559 1559 1559 1559 1559 1559 1559 1560 1560 1560 1560 1560
1554 1554 1554 1554 1554 1554 1554 1554 1554 1553 1553 1553 1553 1553 1553 1553 1554 1554 1554 1554 1554 1554 1554 1555 1555 1555 1555 1555 1555 1556 1556 1556 1556 1556 1556 1556 1557 1557 1557 1556 1556 1556 1557
1553 1553 1553 1552 1552 1552 1552 1551 1551 1551 1551 1550 1551 1550 1550 1550 1551 1552 1552 1553 1553 1553 1553 1553 1553 1553 1553 1553 1553 1553 1554 1554 1554 1554 1554 1554 1554 1554 1554 1554 1553 1553 1553
1552 1551 1551 1551 1550 1550 1550 1549 1549 1549 1548 1548 1547 1548 1548 1548 1548 1549 1549 1550 1550 1551 1551 1551 1551 1552 1552 1551 1551 1551 1552 1552 1552 1552 1553 1553 1553 1552 1552 1552 1551 1551 1551
1551 1550 1550 1549 1549 1548 1548 1547 1547 1546 1546 1545 1545 1545 1545 1546 1546 1546 1547 1547 1548 1550 1550 1550 1550 1551 1551 1550 1550 1551 1551 1551 1551 1551 1551 1551 1551 1551 1551 1550 1550 1549 1549
1550 1549 1549 1548 1547 1547 1546 1545 1545 1544 1544 1543 1543 1543 1543 1543 1543 1543 1544 1545 1546 1548 1549 1549 1549 1550 1550 1550 1550 1550 1550 1550 1550 1550 1550 1550 1550 1550 1549 1549 1549 1548 1548
1549 1548 1548 1547 1546 1545 1544 1544 1543 1542 1542 1542 1541 1541 1541 1541 1540 1541 1541 1543 1545 1546 1547 1548 1549 1549 1549 1549 1549 1549 1549 1550 1550 1550 1549 1549 1549 1549 1549 1548 1548 1548 1547
1548 1547 1547 1546 1545 1544 1543 1543 1542 1541 1540 1540 1539 1539 1539 1539 1539 1539 1540 1541 1542 1544 1544 1546 1547 1548 1549 1550 1549 1550 1550 1550 1550 1550 1549 1549 1549 1549 1549 1548 1547 1547 1547
1546 1546 1546 1545 1544 1544 1543 1542 1541 1540 1539 1539 1538 1538 1537 1537 1538 1538 1539 1540 1540 1542 1542 1544 1546 1547 1548 1549 1550 1550 1551 1551 1551 1550 1550 1550 1549 1549 1549 1548 1548 1547 1547
1546 1545 1545 1544 1544 1543 1542 1541 1540 1539 1539 1538 1537 1537 1536 1537 1537 1537 1538 1538 1539 1540 1542 1543 1545 1547 1548 1549 1550 1550 1551 1552 1551 1551 1550 1550 1550 1550 1549 1549 1548 1548 1547
1544 1544 1544 1543 1542 1542 1541 1540 1539 1538 1538 1537 1537 1536 1536 1536 1536 1537 1537 1538 1538 1540 1541 1542 1544 1546 1547 1549 1550 1550 1551 1552 1552 1551 1551 1551 1550 1550 1550 1549 1549 1548 1547
1543 1543 1542 1542 1541 1541 1540 1539 1539 1538 1538 1537 1537 1536 1536 1536 1536 1536 1537 1537 1538 1539 1541 1542 1544 1546 1547 1548 1550 1550 1551 1552 1552 1552 1552 1551 1551 1550 1550 1550 1549 1548 1548
1541 1541 1541 1540 1540 1540 1539 1539 1538 1538 1538 1537 1537 1537 1536 1536 1537 1537 1537 1538 1539 1540 1541 1542 1544 1545 1547 1548 1549 1550 1551 1551 1551 1552 1552 1552 1552 1551 1551 1550 1549 1549 1548
1539 1539 1540 1539 1539 1539 1538 1538 1538 1538 1538 1538 1537 1537 1537 1537 1537 1537 1537 1538 1539 1540 1541 1542 1543 1544 1546 1547 1548 1549 1550 1551 1551 1552 1552 1552 1552 1552 1551 1551 1550 1549 1548
1537 1537 1538 1538 1538 1538 1538 1538 1538 1538 1538 1538 1538 1538 1539 1538 1538 1538 1538 1538 1539 1540 1541 1542 1543 1544 1545 1546 1547 1548 1549 1550 1550 1550 1551 1551 1551 1551 1551 1550 1550 1549 1548
1536 1536 1537 1538 1537 1537 1538 1538 1538 1538 1538 1538 1538 1538 1539 1539 1539 1538 1539 1539 1539 1540 1540 1541 1542 1543 1544 1545 1546 1547 1548 1548 1549 1549 1550 1551 1551 1551 1550 1550 1549 1548 1547
1534 1535 1536 1536 1537 1537 1537 1537 1538 1538 1538 1538 1539 1539 1539 1539 1539 1539 1539 1539 1540 1540 1540 1541 1541 1542 1543 1544 1545 1547 1547 1548 1548 1549 1549 1549 1550 1550 1549 1549 1548 1547 1546
1533 1534 1534 1535 1536 1536 1537 1537 1537 1538 1538 1539 1538 1539 1539 1539 1539 1539 1539 1540 1540 1540 1541 1541 1542 1542 1543 1544 1544 1545 1546 1547 1547 1548 1547 1548 1548 1548 1548 1548 1547 1546 1545